Weather History for KLWT - October, 2014

Change the Weather History Date:

Friday, October 10, 2014

  Actual Average Record
Temperature  
Mean Temperature 53 °F 46 °F  
Max Temperature 68 °F 59 °F 84 °F (1996)
Min Temperature 38 °F 33 °F 5 °F (2009)
Degree Days  
Heating Degree Days 12 19  
Month to date heating degree days 138 177  
Since 1 July heating degree days 493 654  
Cooling Degree Days 0 0  
Month to date cooling degree days 0 0  
Year to date cooling degree days 295 210  
Growing Degree Days 4 (Base 50)    
Moisture  
Dew Point 40 °F    
Average Humidity 63    
Maximum Humidity 86    
Minimum Humidity 39    
Precipitation  
Precipitation 0.00 in 0.04 in 0.60 in (1929)
Month to date precipitation 0.08 0.42  
Year to date precipitation 16.65 14.77  
Snow  
Snow 0.00 in - - ()
Snow Depth 0.00 in    
Sea Level Pressure  
Sea Level Pressure 30.02 in    
Wind  
Wind Speed 5 mph (SE)    
Max Wind Speed 14 mph    
Max Gust Speed 14 mph    
Visibility 10 miles    
Events      
T = Trace of Precipitation, MM = Missing Value Source: NWS Daily Summary

Daily Weather History Graph

Daily Weather History Graph

Search for Another Location

Airport or City:

Trip Planner

Search our weather history database for the weather conditions in past years. The results will help you decide how hot, cold, wet, or windy it might be!

Date:

Astronomy

Oct. 10, 2014 Rise Set
Actual Time 7:29 AM MDT 6:39 PM MDT
Civil Twilight 6:58 AM MDT 7:10 PM MDT
Nautical Twilight 6:23 AM MDT 7:45 PM MDT
Astronomical Twilight 5:47 AM MDT 8:20 PM MDT
Moon 8:12 PM MDT (10/10) 10:02 AM MDT (10/10)
Length of Visible Light 12h 11m
Length of Day
11h 10m
Waning Gibbous, 93% of the Moon is Illuminated
Oct 10
Waning Gibbous
Oct 15
Last Quarter
Oct 23
New
Oct 30
First Quarter
Nov 6
Full

Hourly Weather History & Observations

Time (MDT) Temp. Windchill Dew Point Humidity Pressure Visibility Wind Dir Wind Speed Gust Speed Precip Events Conditions
12:54 AM 48.0 °F - 36.0 °F 63% 30.12 in 10.0 mi East 4.6 mph - N/A   Mostly Cloudy
1:54 AM 42.1 °F - 35.1 °F 76% 30.13 in 10.0 mi Calm Calm - N/A   Clear
2:54 AM 44.1 °F 41.5 °F 36.0 °F 73% 30.12 in 10.0 mi South 4.6 mph - N/A   Clear
3:54 AM 41.0 °F 39.0 °F 35.1 °F 79% 30.12 in 10.0 mi SSE 3.5 mph - N/A   Mostly Cloudy
4:54 AM 43.0 °F 40.3 °F 35.1 °F 74% 30.11 in 10.0 mi Variable 4.6 mph - N/A   Clear
5:54 AM 39.9 °F - 34.0 °F 79% 30.12 in 10.0 mi Calm Calm - N/A   Clear
6:54 AM 41.0 °F 37.1 °F 34.0 °F 76% 30.12 in 10.0 mi SE 5.8 mph - N/A   Clear
7:54 AM 42.1 °F 38.4 °F 36.0 °F 79% 30.12 in 10.0 mi SSE 5.8 mph - N/A   Clear
8:54 AM 48.0 °F - 39.0 °F 71% 30.09 in 10.0 mi SSE 4.6 mph - N/A   Clear
9:54 AM 54.0 °F - 39.9 °F 59% 30.06 in 10.0 mi SSE 5.8 mph - N/A   Clear
10:54 AM 57.9 °F - 39.9 °F 51% 30.04 in 10.0 mi Variable 3.5 mph - N/A   Clear
11:54 AM 61.0 °F - 39.0 °F 44% 30.02 in 10.0 mi Calm Calm - N/A   Clear
12:54 PM 64.9 °F - 39.9 °F 40% 29.99 in 10.0 mi Calm Calm - N/A   Clear
1:54 PM 64.9 °F - 39.9 °F 40% 29.99 in 10.0 mi West 4.6 mph - N/A   Clear
2:54 PM 66.9 °F - 42.1 °F 40% 29.96 in 10.0 mi Variable 5.8 mph - N/A   Clear
3:54 PM 68.0 °F - 42.1 °F 39% 29.95 in 10.0 mi North 5.8 mph - N/A   Clear
4:54 PM 66.9 °F - 46.0 °F 47% 29.94 in 10.0 mi NNE 5.8 mph - N/A   Clear
5:54 PM 63.0 °F - 46.9 °F 56% 29.95 in 10.0 mi North 4.6 mph - N/A   Clear
6:54 PM 59.0 °F - 46.0 °F 62% 29.96 in 10.0 mi Calm Calm - N/A   Clear
7:54 PM 52.0 °F - 44.1 °F 74% 29.97 in 10.0 mi South 6.9 mph - N/A   Clear
8:54 PM 51.1 °F - 43.0 °F 74% 29.95 in 10.0 mi South 8.1 mph - N/A   Clear
9:54 PM 46.9 °F - 42.1 °F 83% 29.93 in 10.0 mi ESE 8.1 mph - N/A   Clear
10:54 PM 45.0 °F 41.8 °F 39.9 °F 82% 29.91 in 10.0 mi ESE 5.8 mph - N/A   Clear
11:54 PM 44.1 °F 40.1 °F 39.0 °F 82% 29.89 in 10.0 mi SE 6.9 mph - N/A   Clear